Date,TemperatureHighF,TemperatureAvgF,TemperatureLowF,DewpointHighF,DewpointAvgF,DewpointLowF,HumidityHigh,HumidityAvg,HumidityLow,PressureMaxIn,PressureMinIn,WindSpeedMaxMPH,WindSpeedAvgMPH,GustSpeedMaxMPH,PrecipitationSumIn
2013-2-1,32.0,26.3,18.7,21.9,12.3,6.1,84,56,41,30.06,29.56,10,3,0,0.00
2013-2-2,31.5,23.5,13.5,18.2,9.9,4.8,83,56,40,30.21,29.99,6,2,0,0.00
2013-2-3,30.9,23.9,16.0,20.9,18.1,12.8,91,79,65,29.99,29.67,7,1,0,0.00
2013-2-4,30.2,20.4,11.5,16.6,11.4,8.4,91,70,43,29.91,29.68,11,2,0,0.01
2013-2-5,28.0,23.2,17.1,21.7,17.1,11.9,92,77,69,29.98,29.87,4,1,0,0.00
2013-2-6,40.5,29.3,20.8,29.2,19.5,4.8,98,69,40,30.27,29.87,7,2,0,0.04
2013-2-7,31.8,23.0,11.7,11.6,8.6,5.8,84,56,37,30.50,30.27,7,1,0,0.00
2013-2-8,32.0,25.4,17.8,31.5,22.7,8.5,98,90,56,30.40,29.53,16,6,0,0.00
2013-2-9,25.7,18.9,12.4,19.3,14.1,2.8,98,82,63,30.17,29.53,17,8,0,0.00
2013-2-10,39.4,18.1,-3.6,16.8,5.0,-7.7,85,61,25,30.36,30.18,9,1,0,0.01
2013-2-11,43.0,28.7,4.6,42.5,26.8,1.1,98,92,81,30.30,29.56,3,0,0,0.00
2013-2-12,47.7,38.2,33.1,39.2,30.9,24.0,98,76,52,29.85,29.58,14,3,0,0.00
2013-2-13,46.9,35.7,28.6,29.0,25.9,22.8,88,68,47,29.84,29.64,5,1,0,0.01
2013-2-14,47.7,33.4,21.0,29.2,24.3,20.3,98,73,41,29.95,29.67,6,1,0,0.00
2013-2-15,52.7,35.4,18.0,38.4,30.0,17.5,98,83,56,29.97,29.87,9,1,0,0.00
2013-2-16,39.2,33.8,27.7,32.9,28.8,21.6,98,83,65,29.90,29.62,9,3,0,0.01
2013-2-17,27.9,21.1,13.5,21.9,8.7,0.8,89,60,37,29.68,29.40,14,6,0,0.01
2013-2-18,33.1,20.2,11.5,5.9,1.5,-1.9,74,45,26,30.13,29.69,12,4,0,0.00
2013-2-19,48.6,32.7,11.8,40.9,25.8,5.3,98,78,44,30.14,29.52,5,1,0,0.01
2013-2-20,36.7,30.6,23.9,36.2,20.1,12.3,98,66,45,29.75,29.51,10,4,0,0.01
2013-2-21,33.4,27.0,22.6,17.6,15.0,12.7,75,61,47,30.18,29.74,12,4,0,0.00
2013-2-22,42.1,31.2,16.9,25.2,21.3,14.2,91,68,47,30.34,30.18,8,2,0,0.00
2013-2-23,37.4,33.2,28.9,33.7,30.0,25.0,98,88,79,30.27,29.82,11,2,0,0.01
2013-2-24,36.5,34.4,32.4,36.0,33.9,31.9,98,98,97,29.84,29.64,11,4,0,0.00
2013-2-25,41.9,34.7,25.3,35.0,31.7,24.8,98,89,75,30.20,29.85,6,2,0,0.00
2013-2-26,45.0,37.2,31.3,35.2,31.0,28.1,98,79,63,30.30,30.06,5,2,0,0.00
2013-2-27,42.6,38.1,33.8,42.1,37.5,31.1,98,98,86,30.06,29.53,14,5,0,0.02
2013-2-28,48.4,36.6,29.1,42.5,35.1,28.6,98,95,80,29.59,29.48,4,0,0,0.00